Weather History for Rawlins, WY

Change the Weather History Date:

Friday, August 22, 2014

  Actual Average Record
Temperature  
Mean Temperature 60 °F 64 °F  
Max Temperature 76 °F 80 °F 92 °F (2009)
Min Temperature 43 °F 48 °F 34 °F (1966)
Degree Days  
Heating Degree Days 5 2  
Month to date heating degree days 26 30  
Since 1 June heating degree days 224 255  
Since 1 July heating degree days 52 65  
Cooling Degree Days 0 1  
Month to date cooling degree days 32 55  
Year to date cooling degree days 209 172  
Since 1 June cooling degree days 207 172  
Growing Degree Days 10 (Base 50)    
Moisture  
Dew Point 44 °F    
Average Humidity 61    
Maximum Humidity 92    
Minimum Humidity 29    
Precipitation  
Precipitation T in 0.03 in 0.08 in (1995)
Month to date precipitation 0.43 0.55  
Year to date precipitation 3.74 6.34  
Sea Level Pressure  
Sea Level Pressure 29.93 in    
Wind  
Wind Speed 8 mph (SSW)    
Max Wind Speed 24 mph    
Max Gust Speed 31 mph    
Visibility 10 miles    
Events      
T = Trace of Precipitation, MM = Missing Value Source: NWS Daily Summary

Daily Weather History Graph

Daily Weather History Graph

Search for Another Location

Airport:

Trip Planner

Search our weather history database for the weather conditions in past years. The results will help you decide how hot, cold, wet, or windy it might be!

Date:

Astronomy

Aug. 22, 2014 Rise Set
Actual Time 6:24 AM MDT 7:58 PM MDT
Civil Twilight 5:54 AM MDT 8:27 PM MDT
Nautical Twilight 5:19 AM MDT 9:02 PM MDT
Astronomical Twilight 4:41 AM MDT 9:40 PM MDT
Moon 3:48 AM MDT (8/22) 6:09 PM MDT (8/22)
Length of Visible Light 14h 32m
Length of Day
13h 33m
Waning Crescent, 7% of the Moon is Illuminated
Aug 22
Waning Crescent
Aug 25
New
Sep 2
First Quarter
Sep 8
Full
Sep 15
Last Quarter

Hourly Weather History & Observations

Time (MDT) Temp. Windchill Dew Point Humidity Pressure Visibility Wind Dir Wind Speed Gust Speed Precip Events Conditions
12:53 AM 48.9 °F - 43.0 °F 80% 29.99 in 10.0 mi SSE 4.6 mph - N/A   Clear
1:53 AM 48.0 °F - 43.0 °F 83% 30.01 in 10.0 mi Calm Calm - N/A   Clear
3:53 AM 45.0 °F 42.6 °F 42.1 °F 90% 30.03 in 10.0 mi East 4.6 mph - N/A   Clear
4:53 AM 44.1 °F - 41.0 °F 89% 30.01 in 10.0 mi Calm Calm - N/A   Clear
6:53 AM 45.0 °F - 42.1 °F 90% 30.05 in 10.0 mi Calm Calm - N/A   Clear
7:27 AM 48.0 °F - 44.1 °F 86% 30.21 in 10.0 mi Calm Calm - N/A   Partly Cloudy
7:53 AM 50.0 °F - 46.0 °F 86% 30.04 in 10.0 mi Calm Calm - N/A   Clear
8:53 AM 54.0 °F - 46.9 °F 77% 30.03 in 10.0 mi NW 3.5 mph - N/A   Clear
9:53 AM 57.9 °F - 48.0 °F 70% 30.00 in 10.0 mi Calm Calm - N/A   Clear
10:53 AM 64.0 °F - 46.9 °F 54% 29.97 in 10.0 mi Calm Calm - N/A   Clear
11:53 AM 68.0 °F - 46.0 °F 45% 29.94 in 10.0 mi Variable 4.6 mph - N/A   Clear
12:53 PM 73.9 °F - 43.0 °F 33% 29.89 in 10.0 mi SSW 10.4 mph - N/A   Mostly Cloudy
1:53 PM 75.0 °F - 41.0 °F 29% 29.87 in 10.0 mi SSW 18.4 mph - N/A   Overcast
2:53 PM 73.9 °F - 42.1 °F 32% 29.86 in 10.0 mi SSW 15.0 mph 24.2 mph N/A   Clear
3:53 PM 73.9 °F - 39.9 °F 29% 29.85 in 10.0 mi SSW 13.8 mph - N/A   Partly Cloudy
4:53 PM 72.0 °F - 39.9 °F 31% 29.86 in 10.0 mi South 23.0 mph 28.8 mph N/A   Clear
5:53 PM 68.0 °F - 42.1 °F 39% 29.86 in 10.0 mi SSW 18.4 mph - N/A   Overcast
6:53 PM 69.1 °F - 39.9 °F 35% 29.84 in 10.0 mi South 20.7 mph - N/A   Scattered Clouds
7:53 PM 66.0 °F - 42.1 °F 42% 29.84 in 10.0 mi South 10.4 mph - N/A   Mostly Cloudy
8:53 PM 64.9 °F - 44.1 °F 47% 29.84 in 10.0 mi SW 6.9 mph - N/A   Overcast
9:53 PM 62.1 °F - 46.0 °F 56% 29.86 in 10.0 mi NW 8.1 mph - N/A   Overcast
10:53 PM 61.0 °F - 46.9 °F 60% 29.82 in 10.0 mi Calm Calm - N/A   Overcast
11:53 PM 57.9 °F - 50.0 °F 75% 29.81 in 10.0 mi Calm Calm - N/A   Overcast